• In Netherlands
  • List of Countries
  • For 7 days
  • Water Temperature
  • Satellite Maps
  • Weather Map
  • Weather Widgets
  • user-avatar
    Login

    Hourly Weather Qala i Naw

    Today, 18 November, Saturday

    Time Temperature Precipitation Wind Pressure Humidity
    00:00 +6°C° 0 mm 0 mps 684 mmHg 65%
    01:00 +5°C° 0 mm 0 mps 684 mmHg 67%
    02:00 +5°C° 0 mm 0 mps 684 mmHg 68%
    03:00 +5°C° 0 mm 0 mps 684 mmHg 69%
    04:00 +5°C° 0 mm 0 mps 684 mmHg 70%
    05:00 +5°C° 0 mm 0 mps 684 mmHg 69%
    06:00 +5°C° 0 mm 0 mps 685 mmHg 69%
    07:00 +5°C° 0 mm 0 mps 685 mmHg 68%
    08:00 +6°C° 0 mm 0 mps 685 mmHg 60%
    09:00 +9°C° 0 mm 1 mps 686 mmHg 52%
    10:00 +11°C° 0 mm 1 mps 686 mmHg 44%
    11:00 +12°C° 0 mm 1 mps 686 mmHg 42%
    12:00 +13°C° 0 mm 2 mps 686 mmHg 39%
    13:00 +13°C° 0 mm 2 mps 686 mmHg 36%
    14:00 +13°C° 0 mm 2 mps 686 mmHg 37%
    15:00 +12°C° 0 mm 3 mps 686 mmHg 38%
    16:00 +12°C° 0 mm 3 mps 686 mmHg 38%
    17:00 +10°C° 0 mm 2 mps 686 mmHg 43%
    18:00 +9°C° 0 mm 2 mps 686 mmHg 47%
    19:00 +9°C° 0 mm 1 mps 686 mmHg 51%
    20:00 +9°C° 0 mm 1 mps 686 mmHg 52%
    21:00 +8°C° 0 mm 1 mps 686 mmHg 53%
    22:00 +7°C° 0 mm 1 mps 686 mmHg 54%
    23:00 +7°C° 0 mm 1 mps 686 mmHg 54%

    Tomorrow, 19 November, Sunday

    Time Temperature Precipitation Wind Pressure Humidity
    00:00 +7°C° 0 mm 1 mps 686 mmHg 55%
    01:00 +6°C° 0 mm 1 mps 686 mmHg 55%
    02:00 +6°C° 0 mm 1 mps 686 mmHg 55%
    03:00 +6°C° 0 mm 1 mps 685 mmHg 56%
    04:00 +4°C° 0 mm 0 mps 685 mmHg 56%
    05:00 +4°C° 0 mm 0 mps 685 mmHg 56%
    06:00 +4°C° 0 mm 0 mps 685 mmHg 55%
    07:00 +4°C° 0 mm 0 mps 686 mmHg 54%
    08:00 +8°C° 0 mm 1 mps 686 mmHg 47%
    09:00 +10°C° 0 mm 1 mps 686 mmHg 40%
    10:00 +12°C° 0 mm 1 mps 687 mmHg 33%
    11:00 +13°C° 0 mm 1 mps 686 mmHg 30%
    12:00 +14°C° 0 mm 2 mps 686 mmHg 27%
    13:00 +15°C° 0 mm 2 mps 685 mmHg 24%
    14:00 +15°C° 0 mm 2 mps 685 mmHg 25%
    15:00 +14°C° 0 mm 2 mps 685 mmHg 26%
    16:00 +14°C° 0 mm 2 mps 685 mmHg 27%
    17:00 +13°C° 0 mm 1 mps 685 mmHg 31%
    18:00 +11°C° 0 mm 1 mps 685 mmHg 35%
    19:00 +9°C° 0 mm 0 mps 684 mmHg 39%
    20:00 +8°C° 0 mm 0 mps 684 mmHg 39%
    21:00 +8°C° 0 mm 0 mps 684 mmHg 39%
    22:00 +7°C° 0 mm 0 mps 684 mmHg 39%
    23:00 +7°C° 0 mm 0 mps 684 mmHg 38%

    Day after tomorrow, 20 November, Monday

    Time Temperature Precipitation Wind Pressure Humidity
    00:00 +8°C° 0 mm 1 mps 684 mmHg 37%
    01:00 +8°C° 0 mm 1 mps 683 mmHg 36%
    02:00 +7°C° 0 mm 1 mps 683 mmHg 36%
    03:00 +7°C° 0 mm 1 mps 683 mmHg 35%
    04:00 +7°C° 0 mm 1 mps 683 mmHg 34%
    05:00 +7°C° 0 mm 1 mps 683 mmHg 32%
    06:00 +7°C° 0 mm 1 mps 683 mmHg 30%
    07:00 +7°C° 0 mm 1 mps 683 mmHg 28%
    08:00 +10°C° 0 mm 1 mps 684 mmHg 23%
    09:00 +13°C° 0 mm 1 mps 684 mmHg 18%
    10:00 +16°C° 0 mm 1 mps 685 mmHg 13%
    11:00 +18°C° 0 mm 1 mps 685 mmHg 12%
    12:00 +19°C° 0 mm 1 mps 684 mmHg 11%
    13:00 +20°C° 0 mm 1 mps 684 mmHg 9%
    14:00 +19°C° 0 mm 1 mps 683 mmHg 10%
    15:00 +18°C° 0 mm 2 mps 683 mmHg 11%
    16:00 +17°C° 0 mm 2 mps 683 mmHg 12%
    17:00 +16°C° 0 mm 1 mps 683 mmHg 14%
    18:00 +14°C° 0 mm 1 mps 683 mmHg 15%
    19:00 +13°C° 0 mm 1 mps 683 mmHg 17%
    20:00 +13°C° 0 mm 1 mps 683 mmHg 17%
    21:00 +12°C° 0 mm 1 mps 682 mmHg 17%
    22:00 +12°C° 0 mm 2 mps 682 mmHg 17%
    23:00 +12°C° 0 mm 2 mps 682 mmHg 17%

    21 November, Tuesday

    Time Temperature Precipitation Wind Pressure Humidity
    00:00 +10°C° 0 mm 2 mps 682 mmHg 17%
    01:00 +10°C° 0 mm 2 mps 681 mmHg 18%
    02:00 +10°C° 0 mm 2 mps 681 mmHg 18%
    03:00 +9°C° 0 mm 2 mps 681 mmHg 18%
    04:00 +9°C° 0 mm 2 mps 681 mmHg 18%
    05:00 +9°C° 0 mm 2 mps 681 mmHg 18%
    06:00 +9°C° 0 mm 2 mps 681 mmHg 18%
    07:00 +10°C° 0 mm 2 mps 681 mmHg 18%
    08:00 +13°C° 0 mm 2 mps 682 mmHg 15%
    09:00 +16°C° 0 mm 2 mps 683 mmHg 13%
    10:00 +18°C° 0 mm 2 mps 683 mmHg 10%
    11:00 +19°C° 0 mm 2 mps 683 mmHg 10%
    12:00 +20°C° 0 mm 2 mps 682 mmHg 9%
    13:00 +22°C° 0 mm 1 mps 682 mmHg 8%
    14:00 +21°C° 0 mm 1 mps 681 mmHg 9%
    15:00 +20°C° 0 mm 1 mps 681 mmHg 10%
    16:00 +19°C° 0 mm 2 mps 681 mmHg 10%
    17:00 +17°C° 0 mm 2 mps 681 mmHg 12%
    18:00 +16°C° 0 mm 2 mps 681 mmHg 13%
    19:00 +14°C° 0 mm 2 mps 681 mmHg 14%
    20:00 +14°C° 0 mm 2 mps 681 mmHg 14%
    21:00 +14°C° 0 mm 2 mps 681 mmHg 14%
    22:00 +14°C° 0 mm 2 mps 681 mmHg 15%
    23:00 +13°C° 0 mm 2 mps 680 mmHg 15%

    22 November, Wednesday

    Time Temperature Precipitation Wind Pressure Humidity
    00:00 +13°C° 0 mm 2 mps 680 mmHg 16%
    01:00 +13°C° 0 mm 2 mps 680 mmHg 16%
    02:00 +11°C° 0 mm 3 mps 679 mmHg 17%
    03:00 +11°C° 0 mm 3 mps 679 mmHg 17%
    04:00 +11°C° 0 mm 3 mps 679 mmHg 17%
    05:00 +11°C° 0 mm 3 mps 679 mmHg 17%
    06:00 +11°C° 0 mm 3 mps 679 mmHg 17%
    07:00 +11°C° 0 mm 3 mps 679 mmHg 17%
    08:00 +14°C° 0 mm 3 mps 680 mmHg 14%
    09:00 +17°C° 0 mm 3 mps 680 mmHg 12%
    10:00 +20°C° 0 mm 3 mps 681 mmHg 10%
    11:00 +21°C° 0 mm 3 mps 681 mmHg 9%
    12:00 +22°C° 0 mm 3 mps 680 mmHg 8%
    13:00 +24°C° 0 mm 2 mps 680 mmHg 8%
    14:00 +23°C° 0 mm 2 mps 679 mmHg 9%
    15:00 +21°C° 0 mm 2 mps 679 mmHg 9%
    16:00 +20°C° 0 mm 2 mps 679 mmHg 10%
    17:00 +19°C° 0 mm 2 mps 679 mmHg 11%
    18:00 +19°C° 0 mm 1 mps 679 mmHg 12%
    19:00 +18°C° 0 mm 1 mps 679 mmHg 13%
    20:00 +16°C° 0 mm 1 mps 679 mmHg 14%
    21:00 +16°C° 0 mm 1 mps 679 mmHg 14%
    22:00 +15°C° 0 mm 1 mps 679 mmHg 15%
    23:00 +15°C° 0 mm 1 mps 679 mmHg 15%

    23 November, Thursday

    Time Temperature Precipitation Wind Pressure Humidity
    00:00 +15°C° 0 mm 1 mps 679 mmHg 16%
    01:00 +14°C° 0 mm 1 mps 678 mmHg 16%
    02:00 +14°C° 0 mm 1 mps 679 mmHg 17%
    03:00 +14°C° 0 mm 2 mps 679 mmHg 18%
    04:00 +14°C° 0 mm 2 mps 679 mmHg 19%
    05:00 +14°C° 0.1 mm 2 mps 679 mmHg 22%
    06:00 +14°C° 0.1 mm 2 mps 679 mmHg 25%
    07:00 +14°C° 0.1 mm 2 mps 680 mmHg 28%
    08:00 +16°C° 0 mm 2 mps 680 mmHg 28%
    09:00 +17°C° 0 mm 2 mps 681 mmHg 28%
    10:00 +18°C° 0 mm 2 mps 681 mmHg 27%
    11:00 +19°C° 0 mm 2 mps 681 mmHg 28%
    12:00 +19°C° 0 mm 2 mps 681 mmHg 28%
    13:00 +19°C° 0 mm 3 mps 680 mmHg 29%
    14:00 +19°C° 0 mm 2 mps 680 mmHg 29%
    15:00 +19°C° 0 mm 2 mps 680 mmHg 30%
    16:00 +19°C° 0 mm 1 mps 680 mmHg 31%
    17:00 +17°C° 0 mm 2 mps 680 mmHg 33%
    18:00 +16°C° 0 mm 2 mps 680 mmHg 34%
    19:00 +15°C° 0 mm 2 mps 681 mmHg 36%
    20:00 +15°C° 0 mm 2 mps 681 mmHg 36%
    21:00 +14°C° 0 mm 2 mps 681 mmHg 37%
    22:00 +14°C° 0 mm 2 mps 681 mmHg 37%
    23:00 +13°C° 0 mm 2 mps 680 mmHg 37%
    Show more